Simultaneous Nadir Overpasses (SNOs) Predictions

Prediction of SNOs between METOP-B and NOAA-19 Satellite Orbit:

Table of predicted SNOs for the next 14.0 days since TLE Epoch: 7/9/2022
Index Date (METOP-B) Time (METOP-B) Lat,Lon (METOP-B) SZA (METOP-B ) Date (NOAA-19) Time (NOAA-19) Lat,Lon (NOAA-19) SZA (NOAA-19 ) Distance(km) Time Diff (sec)
1 07/18/2022 12:47:53 80.86, 21.50 61.32 07/18/2022 12:46:44 80.86, 21.56 61.31 1.17 69
2 07/18/2022 13:38:34 -80.87,-171.02 118.65 07/18/2022 13:37:42 -80.86,-170.85 118.67 3.17 52
3 07/18/2022 14:29:14 80.87, -3.64 61.36 07/18/2022 14:28:43 80.86, -3.63 61.34 1.18 31
4 07/18/2022 15:19:56 -80.86, 163.49 118.66 07/18/2022 15:19:42 -80.86, 163.60 118.66 1.98 14
5 07/18/2022 16:10:36 80.86, -29.13 61.36 07/18/2022 16:10:43 80.86, -29.19 61.35 1.03 7
6 07/18/2022 17:01:18 -80.85, 138.00 118.67 07/18/2022 17:01:42 -80.86, 138.05 118.65 1.41 24
7 07/18/2022 17:51:58 80.85, -54.62 61.35 07/18/2022 17:52:43 80.86, -54.75 61.36 2.36 45



Historial Predications of SNOs between METOP-B and NOAA-19
